This demonstration page uses our WeatherBlox Daily Observations layout. Learn more.

40.92945, -100.16068

Hourly Observations for June 14, 2015

Temp ( °F °C ) Dew Point ( °F °C ) Humidity (%) Winds ( mph kmh ) Pressure ( in mb ) Visibility ( mi km ) Precip ( " mm )
12:15 am 00:15 Clear 67 19.6 64 17.5 88 88 SSE 8 13 29.8 1009 10 16.0934 N/A
12:35 am 00:35 Clear 67 19.5 64 17.5 88 88 SSE 7 11 29.83 1010 10 16.0934 N/A
12:55 am 00:55 Clear 67 19.5 64 17.5 88 88 SSE 8 13 29.83 1010 10 16.0934 N/A
1:15 am 01:15 Clear 67 19.4 64 17.7 90 90 SSE 8 13 29.83 1010 10 16.0934 N/A
1:35 am 01:35 Clear 66 19.1 64 17.7 92 92 SSE 6 9 29.83 1010 10 16.0934 N/A
1:55 am 01:55 Partly Cloudy 66 19.1 64 18 93 93 SSE 7 11 29.83 1010 10 16.0934 N/A
2:15 am 02:15 Partly Cloudy 67 19.2 64 18 93 93 SSE 8 13 29.83 1010 10 16.0934 N/A
2:35 am 02:35 Clear 67 19.2 64 18 93 93 SSE 6 9 29.8 1009 10 16.0934 N/A
2:55 am 02:55 Partly Cloudy 66 18.7 64 17.5 93 93 SE 5 7 29.8 1009 10 16.0934 N/A
3:15 am 03:15 Partly Cloudy 66 18.9 64 17.9 94 94 SE 3 6 29.8 1009 10 16.0934 N/A
3:35 am 03:35 Partly Cloudy 66 19 64 17.9 93 93 ESE 3 6 29.8 1009 10 16.0934 N/A
3:55 am 03:55 Partly Cloudy 64 17.9 62 16.9 94 94 Calm 29.83 1010 7 11.26538 N/A
4:15 am 04:15 Partly Cloudy with Mist and Fog 64 17.5 62 16.6 95 95 Calm 29.83 1010 5 8.0467 N/A
4:35 am 04:35 Clear with Mist and Fog 63 17.2 62 16.5 96 96 Calm 29.83 1010 5 8.0467 N/A
4:55 am 04:55 Mostly Cloudy with Mist and Fog 62 16.8 61 16.1 96 96 Calm 29.83 1010 1.25 2.011675 N/A
5:15 am 05:15 Mostly Cloudy with Fog 62 16.4 60 15.8 96 96 E 3 6 29.83 1010 0.5 0.80467 N/A
5:35 am 05:35 Mostly Cloudy with Mist and Fog 61 16.1 60 15.4 96 96 Calm 29.83 1010 1 1.60934 N/A
5:55 am 05:55 Mostly Cloudy with Fog 61 16.1 60 15.4 96 96 E 3 6 29.83 1010 0.5 0.80467 N/A
6:15 am 06:15 Mostly Cloudy with Fog 60 15.6 59 15 96 96 E 3 6 29.83 1010 0.5 0.80467 N/A
6:35 am 06:35 Mostly Cloudy with Mist and Fog 60 15.8 60 15.3 97 97 E 3 6 29.83 1010 1 1.60934 N/A
6:55 am 06:55 Mostly Cloudy with Fog 62 16.4 61 15.9 97 97 Calm 29.83 1010 0.25 0.402335 N/A
7:15 am 07:15 Mostly Cloudy with Mist and Fog 63 17.4 62 16.9 97 97 Calm 29.83 1010 0.75 1.207005 N/A
7:35 am 07:35 Mostly Cloudy with Mist and Fog 66 19 65 18.5 97 97 SSE 3 6 29.8 1009 3 4.82802 N/A
7:55 am 07:55 Cloudy with Mist and Fog 68 20 67 19.5 97 97 S 5 7 29.8 1009 0.75 1.207005 N/A
8:15 am 08:15 Cloudy with Fog 69 20.4 68 19.9 97 97 Calm 29.8 1009 0.25 0.402335 N/A
8:35 am 08:35 Cloudy with Fog 70 21 69 20.5 97 97 Calm 29.8 1009 0.25 0.402335 N/A
8:55 am 08:55 Cloudy with Mist and Fog 71 21.6 70 21.1 97 97 SSW 5 7 29.83 1010 1.75 2.816345 N/A
9:15 am 09:15 Cloudy with Mist and Fog 71 21.5 70 21 97 97 Calm 29.83 1010 4 6.43736 N/A
9:35 am 09:35 Cloudy with Mist and Fog 72 22.1 71 21.5 96 96 SSE 3 6 29.83 1010 5 8.0467 N/A
9:55 am 09:55 Cloudy 72 22.4 71 21.7 96 96 SW 3 6 29.83 1010 7 11.26538 N/A
10:15 am 10:15 Cloudy 73 22.6 71 21.7 95 95 SSE 5 7 29.8 1009 7 11.26538 N/A
10:35 am 10:35 Cloudy 74 23.3 71 21.8 91 91 SE 5 7 29.8 1009 7 11.26538 N/A
10:55 am 10:55 Cloudy 74 23.5 71 21.5 89 89 SSE 5 7 29.8 1009 10 16.0934 N/A
11:15 am 11:15 Mostly Cloudy 76 24.3 71 21.6 85 85 Calm 29.8 1009 10 16.0934 N/A
11:35 am 11:35 Mostly Cloudy 78 25.4 71 21.8 81 81 ENE 3 6 29.8 1009 10 16.0934 N/A
11:55 am 11:55 Partly Cloudy 78 25.4 71 21.6 80 80 Calm 29.8 1009 10 16.0934 N/A
12:15 pm 12:15 Partly Cloudy 78 25.8 71 21.8 79 79 S 3 6 29.77 1008 10 16.0934 N/A
12:35 pm 12:35 Partly Cloudy 80 26.7 72 22 75 75 SSW 3 6 29.8 1009 10 16.0934 N/A
1:15 pm 13:15 Partly Cloudy 81 27.2 70 20.9 69 69 ESE 6 9 29.77 1008 10 16.0934 N/A
1:35 pm 13:35 Partly Cloudy 82 27.5 69 20.8 67 67 SE 3 6 29.77 1008 10 16.0934 N/A
1:55 pm 13:55 Sunny 82 27.7 68 20.2 64 64 Calm 29.77 1008 10 16.0934 N/A
2:15 pm 14:15 Sunny 83 28.1 64 17.8 54 54 Calm 29.77 1008 10 16.0934 N/A
2:35 pm 14:35 Sunny 81 27.3 67 19.2 61 61 E 6 9 29.74 1007 10 16.0934 N/A
2:55 pm 14:55 Sunny 80 26.8 67 19.4 64 64 SSE 9 15 29.74 1007 10 16.0934 N/A
3:15 pm 15:15 Sunny 79 26 67 19.5 67 67 E 8 13 29.74 1007 10 16.0934 N/A
3:35 pm 15:35 Sunny 77 25.1 66 19.1 69 69 ESE 8 13 29.77 1008 10 16.0934 N/A
3:55 pm 15:55 Sunny 78 25.3 67 19.2 69 69 SE 21 33 29.77 1008 10 16.0934 N/A
4:15 pm 16:15 Sunny 74 23.1 67 19.5 80 80 SE 12 19 29.77 1008 10 16.0934 N/A
4:35 pm 16:35 Sunny 71 21.9 65 18.6 82 82 ESE 8 13 29.8 1009 10 16.0934 N/A
4:55 pm 16:55 Partly Cloudy 71 21.6 65 18.5 83 83 SE 5 7 29.8 1009 10 16.0934 N/A
5:15 pm 17:15 Partly Cloudy 71 21.5 64 17.8 80 80 SSE 6 9 29.83 1010 10 16.0934 N/A
5:35 pm 17:35 Sunny 70 21.2 65 18.1 83 83 SSE 5 7 29.83 1010 10 16.0934 N/A
5:55 pm 17:55 Sunny 70 21.1 65 18.3 84 84 SSE 3 6 29.83 1010 10 16.0934 N/A
6:15 pm 18:15 Sunny 70 21.3 65 18.6 85 85 Calm 29.83 1010 10 16.0934 N/A
6:35 pm 18:35 Sunny 70 21.2 65 18.5 85 85 Calm 29.8 1009 10 16.0934 N/A
6:55 pm 18:55 Sunny 71 21.5 65 18.4 83 83 S 5 7 29.8 1009 10 16.0934 N/A
7:15 pm 19:15 Sunny 71 21.6 65 18.1 81 81 SSE 3 6 29.8 1009 10 16.0934 N/A
7:35 pm 19:35 Sunny 71 21.5 64 18 81 81 SE 7 11 29.8 1009 10 16.0934 N/A
7:55 pm 19:55 Sunny 71 21.7 64 18 80 80 Calm 29.8 1009 10 16.0934 N/A
8:15 pm 20:15 Sunny 71 21.8 63 17.3 76 76 S 3 6 29.83 1010 10 16.0934 N/A
8:35 pm 20:35 Sunny 71 21.6 63 17.1 76 76 Calm 29.83 1010 10 16.0934 N/A
8:55 pm 20:55 Sunny 70 20.9 63 17 78 78 W 5 7 29.83 1010 10 16.0934 N/A
9:15 pm 21:15 Clear 68 20.2 63 17.4 84 84 Calm 29.85 1011 10 16.0934 N/A
9:35 pm 21:35 Clear 68 20.2 63 17.2 83 83 SE 6 9 29.85 1011 10 16.0934 N/A
9:55 pm 21:55 Clear 68 20 63 17.2 84 84 SSE 3 6 29.85 1011 10 16.0934 N/A
10:15 pm 22:15 Clear 67 19.7 63 17.4 87 87 S 5 7 29.85 1011 10 16.0934 N/A
10:35 pm 22:35 Clear 67 19.6 64 17.7 89 89 SSE 6 9 29.88 1012 10 16.0934 N/A
10:55 pm 22:55 Clear 68 20.2 63 17.3 84 84 SE 7 11 29.88 1012 10 16.0934 N/A
11:15 pm 23:15 Clear 68 20 64 17.5 86 86 SE 7 11 29.88 1012 10 16.0934 N/A
11:35 pm 23:35 Partly Cloudy 67 19.6 64 17.5 88 88 Calm 29.88 1012 10 16.0934 N/A
11:55 pm 23:55 Partly Cloudy 67 19.2 64 17.5 90 90 SSW 3 6 29.91 1013 10 16.0934 N/A

Powered by AerisWeather